| time (UTC) | temp F | wind direction | speed MPH | gust MPH | rain 1hr in | rain 24hr in | rain mn in | humidity % | barometer mb |
| 20260506024556 | 59 | 209 | 8.0 | 12.0 | 0.10 | 0.71 | 0.71 | 96 | 1005.9 |
| 20260506023101 | 58 | 207 | 7.0 | 11.0 | 0.11 | 0.71 | 0.71 | 96 | 1005.9 |
| 20260506021558 | 59 | 205 | 3.0 | 8.0 | 0.10 | 0.70 | 0.70 | 96 | 1006.2 |
| 20260506020054 | 59 | 256 | 4.0 | 7.0 | 0.05 | 0.65 | 0.65 | 95 | 1006.6 |
| 20260506014559 | 59 | 338 | 4.0 | 5.0 | 0.01 | 0.61 | 0.61 | 95 | 1006.1 |
| 20260506013055 | 59 | 331 | 6.0 | 9.0 | 0.00 | 0.60 | 0.60 | 94 | 1006.2 |
| 20260506011558 | 59 | 280 | 2.0 | 7.0 | 0.00 | 0.60 | 0.60 | 94 | 1005.9 |
| 20260506010057 | 60 | 300 | 5.0 | 8.0 | 0.00 | 0.60 | 0.60 | 94 | 1006.2 |
| 20260506004558 | 60 | 203 | 7.0 | 13.0 | 0.00 | 0.60 | 0.60 | 93 | 1006.1 |
| 20260506003056 | 60 | 239 | 6.0 | 12.0 | 0.01 | 0.60 | 0.60 | 93 | 1005.7 |
| 20260506001618 | 60 | 221 | 6.0 | 12.0 | 0.02 | 0.60 | 0.60 | 94 | 1005.5 |
| 20260505234601 | 60 | 186 | 6.0 | 15.0 | 0.03 | 0.60 | 0.60 | 94 | 1005.8 |
| 20260505233101 | 60 | 158 | 7.0 | 17.0 | 0.02 | 0.58 | 0.58 | 95 | 1005.9 |
| 20260505231558 | 60 | 129 | 7.0 | 10.0 | 0.01 | 0.58 | 0.58 | 96 | 1005.8 |
| 20260505230119 | 60 | 122 | 6.0 | 9.0 | 0.02 | 0.58 | 0.58 | 95 | 1006.1 |
| 20260505224600 | 60 | 120 | 5.0 | 8.0 | 0.02 | 0.57 | 0.57 | 96 | 1006.2 |
| 20260505223100 | 60 | 131 | 2.0 | 7.0 | 0.03 | 0.57 | 0.57 | 97 | 1006.6 |
| 20260505221600 | 60 | 155 | 5.0 | 17.0 | 0.04 | 0.57 | 0.57 | 97 | 1006.7 |
| 20260505220100 | 60 | 157 | 3.0 | 6.0 | 0.03 | 0.56 | 0.56 | 97 | 1006.8 |
| 20260505214609 | 60 | 173 | 5.0 | 11.0 | 0.03 | 0.55 | 0.55 | 97 | 1007.1 |
| 20260505213103 | 60 | 172 | 4.0 | 9.0 | 0.05 | 0.54 | 0.54 | 97 | 1007.2 |
| 20260505211614 | 60 | 175 | 3.0 | 14.0 | 0.09 | 0.52 | 0.52 | 97 | 1007.2 |
| 20260505210107 | 60 | 193 | 7.0 | 15.0 | 0.15 | 0.52 | 0.52 | 97 | 1007.4 |
| 20260505204558 | 60 | 225 | 6.0 | 14.0 | 0.17 | 0.52 | 0.52 | 96 | 1007.7 |
| 20260505203101 | 60 | 204 | 8.0 | 15.0 | 0.17 | 0.49 | 0.49 | 96 | 1007.7 |
| 20260505201606 | 60 | 231 | 8.0 | 12.0 | 0.16 | 0.44 | 0.44 | 95 | 1008.0 |
| 20260505200057 | 60 | 215 | 6.0 | 16.0 | 0.11 | 0.38 | 0.38 | 95 | 1008.1 |
| 20260505194558 | 60 | 232 | 9.0 | 14.0 | 0.13 | 0.35 | 0.35 | 94 | 1008.2 |
| 20260505193057 | 60 | 198 | 6.0 | 12.0 | 0.25 | 0.32 | 0.32 | 93 | 1008.3 |
| 20260505191604 | 60 | 239 | 10.0 | 17.0 | 0.21 | 0.28 | 0.28 | 93 | 1008.3 |
| 20260505190112 | 60 | 235 | 11.0 | 22.0 | 0.20 | 0.27 | 0.27 | 92 | 1008.4 |
| 20260505184606 | 61 | 259 | 13.0 | 28.0 | 0.15 | 0.22 | 0.22 | 89 | 1008.5 |
| 20260505183059 | 66 | 252 | 9.0 | 16.0 | 0.00 | 0.07 | 0.07 | 74 | 1008.1 |
| 20260505181559 | 67 | 199 | 7.0 | 22.0 | 0.00 | 0.07 | 0.07 | 73 | 1008.0 |
| 20260505180059 | 67 | 175 | 8.0 | 24.0 | 0.00 | 0.07 | 0.07 | 73 | 1008.1 |
| 20260505174557 | 66 | 173 | 13.0 | 26.0 | 0.00 | 0.07 | 0.07 | 72 | 1008.2 |
| 20260505173058 | 66 | 202 | 13.0 | 22.0 | 0.00 | 0.07 | 0.07 | 73 | 1008.5 |
| 20260505171558 | 66 | 204 | 15.0 | 26.0 | 0.00 | 0.07 | 0.07 | 73 | 1008.5 |
| 20260505170106 | 65 | 188 | 10.0 | 21.0 | 0.00 | 0.07 | 0.07 | 73 | 1008.8 |
| 20260505164558 | 65 | 178 | 11.0 | 21.0 | 0.00 | 0.07 | 0.07 | 72 | 1008.8 |
| 20260505163107 | 65 | 203 | 11.0 | 22.0 | 0.00 | 0.07 | 0.07 | 72 | 1008.9 |
| 20260505161558 | 65 | 250 | 9.0 | 24.0 | 0.00 | 0.07 | 0.07 | 72 | 1008.9 |
| 20260505153109 | 64 | 194 | 10.0 | 24.0 | 0.00 | 0.07 | 0.07 | 74 | 1008.9 |
| 20260505151558 | 64 | 184 | 13.0 | 21.0 | 0.00 | 0.07 | 0.07 | 75 | 1008.6 |
| 20260505150115 | 63 | 175 | 11.0 | 20.0 | 0.00 | 0.07 | 0.07 | 77 | 1008.4 |
| 20260505140122 | 61 | 176 | 11.0 | 21.0 | 0.00 | 0.07 | 0.07 | 83 | 1008.1 |
| 20260505124606 | 58 | 166 | 6.0 | 10.0 | 0.00 | 0.07 | 0.07 | 92 | 1008.7 |
| 20260505123112 | 58 | 142 | 4.0 | 8.0 | 0.00 | 0.07 | 0.07 | 93 | 1008.6 |
| 20260505121600 | 57 | 125 | 6.0 | 9.0 | 0.00 | 0.07 | 0.07 | 93 | 1008.5 |
| 20260505120059 | 57 | 151 | 4.0 | 7.0 | 0.00 | 0.07 | 0.07 | 94 | 1008.7 |
| 20260505114606 | 57 | 153 | 7.0 | 10.0 | 0.00 | 0.07 | 0.07 | 94 | 1009.0 |
| 20260505113101 | 57 | 171 | 4.0 | 8.0 | 0.00 | 0.07 | 0.07 | 94 | 1009.1 |
| 20260505111603 | 56 | 167 | 7.0 | 10.0 | 0.01 | 0.07 | 0.07 | 94 | 1009.0 |
| 20260505101606 | 57 | 297 | 6.0 | 14.0 | 0.06 | 0.06 | 0.06 | 91 | 1009.4 |
| 20260505100104 | 57 | 288 | 9.0 | 15.0 | 0.05 | 0.05 | 0.05 | 90 | 1009.3 |
| 20260505094607 | 58 | 283 | 10.0 | 21.0 | 0.04 | 0.04 | 0.04 | 87 | 1009.3 |
| 20260505093056 | 61 | 292 | 16.0 | 30.0 | 0.00 | 0.00 | 0.00 | 77 | 1009.2 |
| 20260505091558 | 65 | 289 | 8.0 | 15.0 | 0.00 | 0.00 | 0.00 | 63 | 1008.3 |
| 20260505090110 | 65 | 213 | 9.0 | 18.0 | 0.00 | 0.00 | 0.00 | 63 | 1007.4 |
| 20260505084559 | 65 | 241 | 10.0 | 20.0 | 0.00 | 0.00 | 0.00 | 63 | 1006.7 |
| 20260505083108 | 65 | 194 | 10.0 | 18.0 | 0.00 | 0.00 | 0.00 | 63 | 1006.6 |
| 20260505081602 | 65 | 226 | 9.0 | 17.0 | 0.00 | 0.00 | 0.00 | 63 | 1006.4 |
| 20260505080059 | 65 | 205 | 10.0 | 19.0 | 0.00 | 0.00 | 0.00 | 63 | 1006.2 |
| 20260505074557 | 65 | 213 | 11.0 | 20.0 | 0.00 | 0.00 | 0.00 | 62 | 1006.2 |
| 20260505073101 | 65 | 190 | 9.0 | 19.0 | 0.00 | 0.00 | 0.00 | 62 | 1006.3 |
| 20260505071559 | 66 | 211 | 10.0 | 21.0 | 0.00 | 0.00 | 0.00 | 62 | 1006.1 |
| 20260505070100 | 66 | 222 | 10.0 | 23.0 | 0.00 | 0.00 | 0.00 | 61 | 1006.1 |
| 20260505064558 | 66 | 211 | 12.0 | 21.0 | 0.00 | 0.00 | 0.00 | 61 | 1006.4 |
| 20260505063101 | 66 | 225 | 12.0 | 22.0 | 0.00 | 0.00 | 0.00 | 61 | 1006.5 |
| 20260505061603 | 66 | 198 | 14.0 | 25.0 | 0.00 | 0.00 | 0.00 | 61 | 1006.4 |
| 20260505054559 | 66 | 192 | 10.0 | 19.0 | 0.00 | 0.00 | 0.00 | 61 | 1006.1 |
| 20260505053058 | 66 | 204 | 11.0 | 21.0 | 0.00 | 0.00 | 0.00 | 60 | 1006.0 |
| 20260505051556 | 66 | 186 | 13.0 | 21.0 | 0.00 | 0.00 | 0.00 | 61 | 1005.9 |
| 20260505050128 | 66 | 197 | 13.0 | 23.0 | 0.00 | 0.00 | 0.00 | 61 | 1006.0 |
| 20260505041610 | 67 | 211 | 9.0 | 16.0 | 0.00 | 0.00 | 0.00 | 62 | 1006.5 |
| 20260505034557 | 68 | 200 | 12.0 | 21.0 | 0.00 | 0.00 | 0.00 | 59 | 1006.7 |
| 20260505033058 | 69 | 225 | 12.0 | 21.0 | 0.00 | 0.00 | 0.00 | 58 | 1006.7 |
| 20260505031559 | 69 | 214 | 12.0 | 20.0 | 0.00 | 0.00 | 0.00 | 58 | 1006.4 |
| 20260505030059 | 69 | 217 | 11.0 | 18.0 | 0.00 | 0.00 | 0.00 | 58 | 1006.2 |